Fort Worth, TX

9:28 AM CDT on May 20, 2018 (GMT -0500)
Fort Worth Meacham International

Weather History for KFTW - February, 2014

Change the Weather History Date:

Sunday, February 2, 2014

  Actual Average Record
Temperature  
Mean Temperature 34 °F -  
Max Temperature 37 °F 55 °F 75 °F (2003)
Min Temperature 30 °F 35 °F 10 °F (2011)
Degree Days  
Heating Degree Days 32    
Moisture  
Dew Point 27 °F    
Average Humidity 81    
Maximum Humidity 92    
Minimum Humidity 65    
Precipitation  
Precipitation 0.13 in - - ()
Sea Level Pressure  
Sea Level Pressure 30.16 in    
Wind  
Wind Speed 16 mph (NNW)    
Max Wind Speed 21 mph    
Max Gust Speed 29 mph    
Visibility 8 miles    
Events Rain    
Averages and records for this station are not official NWS values.
T = Trace of Precipitation, MM = Missing Value Source: NWS Daily Summary

Daily Weather History Graph

Daily Weather History Graph

Search for Another Location

Airport or City:

Astronomy

Feb. 02, 2014 Rise Set
Actual Time 7:23 AM CST 6:03 PM CST
Civil Twilight 6:57 AM CST 6:28 PM CST
Nautical Twilight 6:28 AM CST 6:58 PM CST
Astronomical Twilight 5:59 AM CST 7:27 PM CST
Moon 9:04 AM CST (2/2) 9:33 PM CST (2/2)
Length of Visible Light 11h 31m
Length of Day
10h 39m
Waxing Crescent, 11% of the Moon is Illuminated
Feb 2
Waxing Crescent
Feb 6
First Quarter
Feb 14
Full
Feb 22
Last Quarter
Mar 1
New

Hourly Weather History & Observations

Time (CST) Temp. Windchill Dew Point Humidity Pressure Visibility Wind Dir Wind Speed Gust Speed Precip Events Conditions
12:53 AM 37.9 °F 28.5 °F 27.0 °F 65% 30.03 in 10.0 mi North 17.3 mph 25.3 mph N/A   Overcast
1:53 AM 37.0 °F 27.4 °F 26.1 °F 65% 30.06 in 10.0 mi North 17.3 mph 25.3 mph 0.00 in   Overcast
2:53 AM 35.1 °F 24.8 °F 27.0 °F 72% 30.05 in 10.0 mi North 17.3 mph 24.2 mph 0.00 in   Overcast
3:33 AM 35.6 °F 25.2 °F 26.6 °F 70% 30.06 in 10.0 mi North 18.4 mph - N/A   Overcast
3:53 AM 35.1 °F 24.8 °F 27.0 °F 72% 30.08 in 10.0 mi North 17.3 mph - N/A   Overcast
4:53 AM 35.1 °F 24.5 °F 27.0 °F 72% 30.07 in 10.0 mi North 18.4 mph 24.2 mph N/A   Overcast
5:53 AM 34.0 °F 23.4 °F 28.0 °F 79% 30.10 in 10.0 mi North 17.3 mph - 0.00 in   Overcast
6:53 AM 33.1 °F 22.2 °F 27.0 °F 78% 30.11 in 10.0 mi North 17.3 mph 24.2 mph 0.00 in   Overcast
7:00 AM 33.8 °F 23.5 °F 26.6 °F 75% 30.12 in 10.0 mi North 16.1 mph - N/A   Overcast
7:11 AM 33.8 °F 23.2 °F 26.6 °F 75% 30.12 in 10.0 mi North 17.3 mph 28.8 mph N/A   Overcast
7:53 AM 33.1 °F 22.2 °F 28.0 °F 82% 30.14 in 10.0 mi North 17.3 mph 23.0 mph 0.00 in Rain Light Rain
8:53 AM 33.1 °F 22.6 °F 28.9 °F 85% 30.14 in 6.0 mi North 16.1 mph 24.2 mph 0.00 in   Overcast
9:02 AM 33.8 °F 22.8 °F 28.4 °F 81% 30.13 in 7.0 mi North 18.4 mph - N/A   Overcast
9:53 AM 33.1 °F 21.9 °F 28.9 °F 85% 30.17 in 7.0 mi North 18.4 mph 25.3 mph N/A   Overcast
10:00 AM 33.8 °F 22.5 °F 28.4 °F 81% 30.17 in 7.0 mi NNW 19.6 mph 24.2 mph N/A   Overcast
10:53 AM 33.1 °F 21.9 °F 30.0 °F 89% 30.17 in 5.0 mi North 18.4 mph 24.2 mph 0.00 in Rain Light Rain
11:53 AM 33.1 °F 23.9 °F 30.0 °F 89% 30.17 in 7.0 mi North 12.7 mph 25.3 mph 0.00 in   Overcast
12:53 PM 33.1 °F 23.0 °F 30.0 °F 89% 30.18 in 10.0 mi NNW 15.0 mph 26.5 mph 0.01 in   Overcast
1:50 PM 33.8 °F 25.3 °F 30.2 °F 87% 30.16 in 2.5 mi NNW 11.5 mph - 0.03 in Rain Light Freezing Rain
1:53 PM 33.1 °F 24.9 °F 30.9 °F 92% 30.18 in 2.5 mi NNW 10.4 mph - 0.04 in Rain Light Freezing Rain
2:00 PM 33.8 °F 27.7 °F 30.2 °F 87% 30.16 in 2.5 mi NNW 6.9 mph - 0.02 in Rain Light Freezing Rain
2:12 PM 33.8 °F 24.3 °F 30.2 °F 87% 30.15 in 4.0 mi NNW 13.8 mph 19.6 mph 0.05 in Rain Light Freezing Rain
2:36 PM 32.0 °F 21.2 °F 28.4 °F 87% 30.14 in 4.0 mi NNW 16.1 mph - 0.08 in Rain Light Freezing Rain
2:53 PM 30.0 °F 17.2 °F 28.0 °F 92% 30.15 in 5.0 mi NNW 20.7 mph 26.5 mph 0.08 in Rain Light Freezing Rain
3:04 PM 30.2 °F 18.9 °F 26.6 °F 86% 30.13 in 6.0 mi NNW 16.1 mph 24.2 mph 0.00 in Rain Light Freezing Rain
3:13 PM 30.2 °F 18.1 °F 26.6 °F 86% 30.13 in 8.0 mi NNW 18.4 mph 26.5 mph 0.00 in   Overcast
3:53 PM 30.9 °F 19.1 °F 27.0 °F 85% 30.18 in 7.0 mi North 18.4 mph 23.0 mph 0.00 in   Overcast
4:53 PM 30.0 °F 17.2 °F 25.0 °F 82% 30.21 in 7.0 mi NNW 20.7 mph 26.5 mph N/A   Overcast
5:53 PM 30.0 °F 17.9 °F 25.0 °F 82% 30.24 in 9.0 mi North 18.4 mph 21.9 mph N/A   Overcast
6:53 PM 30.0 °F 20.5 °F 26.1 °F 85% 30.26 in 10.0 mi NNW 11.5 mph - N/A   Overcast
7:53 PM 30.0 °F 21.1 °F 25.0 °F 82% 30.27 in 9.0 mi NNW 10.4 mph - N/A   Overcast
8:00 PM 30.2 °F 22.6 °F 24.8 °F 80% 30.25 in 9.0 mi NNW 8.1 mph - N/A   Overcast
8:53 PM 30.0 °F 21.7 °F 25.0 °F 82% 30.27 in 9.0 mi NNW 9.2 mph - N/A   Overcast
9:53 PM 30.0 °F 21.7 °F 25.0 °F 82% 30.28 in 9.0 mi North 9.2 mph - N/A   Overcast
10:08 PM 30.2 °F 22.6 °F 24.8 °F 80% 30.26 in 9.0 mi NNW 8.1 mph - N/A   Overcast
10:53 PM 30.0 °F 21.7 °F 25.0 °F 82% 30.28 in 10.0 mi NNW 9.2 mph - N/A   Overcast
11:53 PM 30.0 °F 21.1 °F 25.0 °F 82% 30.28 in 10.0 mi North 10.4 mph - N/A   Overcast